一网星座-0594星 (ONEWEB-0594 )

导读

ONEWEB-0594是英国OneWeb(一网)星座下的低轨宽带通信卫星,于2022年12月8日发射入轨。作为全球第二大卫星互联网星座组网卫星,它运行于1200公里近地轨道,单星重量约147.5kg,配备Ku/Ka波段天线,依托离子电推进提升轨道,为全球宽带互联网接入服务提供基础设施支撑,助力OneWeb实现全球网络覆盖。

Basic Information
目录编号:
54660
目录名称:
ONEWEB-0594
国际标识:
2022-166U
轨道中心:
EARTH
卫星名称:
一网星座-0594星
卫星全名:
一网星座-0594星 (ONEWEB-0594 )
卫星状态:
在轨 (已飞行1328 天)
发射日期:
2022-12-08 UTC
国别 :
英国 (GB)
星等 :
--
Orbit Information
数据来源 国际轨道数据 AOE轨道数据
星历时间 2026-07-27T19:22:38+0800
13小时前
查看轨道信息
2026-07-28T01:00:00+0800
7小时前
查看轨道信息
半长轴 7555.894km 7555.894km
偏心率 0.0002213 0.0002012
轨道倾角 87.922° 87.923°
近地点辐角 95.116° 84.699°
升交点赤经 235.972° 235.929°
平近点角 265.022° 309.645°
近地点 1176.084km 1176.236km
远地点 1179.43km 1179.278km
周期 108.940分钟 108.940分钟
每日圈数 13.218252 13.218251
Detailed Information
平衡模式:
三轴稳定
覆盖范围:
全球
运营商:
一网卫星公司
运营商所在国:
英国
制造商(研发单位):
一网卫星公司
制造商所在国:
英国
使用方式:
暂无
Satellite Introduction
OneWeb卫星网络由648颗重约125公斤的微型卫星组成,运行在1200公里的轨道上。 每颗卫星都能够提供至少每秒8千兆位的吞吐量,以使用其高吞吐量的Ku频段有效载荷为家庭和移动平台提供互联网接入。该卫星仍在工作。
2D Orbit Map
3D Orbit Map
Orbit Altitude Analysis Chart
Orbit Inclination Analysis Chart
Orbit Comprehensive Analysis Chart
View Comprehensive Chart